Regional Weather Roundup
Issued by NWS

Home | Current Version | Previous Version | Text Only | Print | Product List | Glossary Off
Versions: 1 2 3 4 5 6 7 8 9 10 11 12 13 14 15 16 17 18 19 20 21 22 23 24 25 26 27 28 29 30 31 32 33 34 35 36 37 38 39 40 41 42 43 44 45 46 47 48 49 50

000
ASUS43 KBIS 211902
RWRND

NORTH DAKOTA REGIONAL WEATHER ROUNDUP
NATIONAL WEATHER SERVICE BISMARCK ND
200 PM CDT FRI JUL 21 2017

NOTE: "FAIR" INDICATES FEW OR NO CLOUDS BELOW 12,000 FEET WITH NO
SIGNIFICANT WEATHER AND/OR OBSTRUCTIONS TO VISIBILITY.


NDZ001>003-009>011-017-212000-
NORTHWEST NORTH DAKOTA

CITY           SKY/WX    TMP DP  RH WIND       PRES   REMARKS
WILLISTON      SUNNY     86  60  41 VRB6      29.84S
MINOT          PTSUNNY   80  64  58 E12       29.77F
MINOT AFB      CLOUDY    77  64  64 SE13      29.75F
$$

NDZ018>021-031>035-040>046-212000-
SOUTHWEST NORTH DAKOTA

CITY           SKY/WX    TMP DP  RH WIND       PRES   REMARKS
BISMARCK       SUNNY     87  68  52 S7        29.81F HX  90
DICKINSON      SUNNY     86  63  45 E3        29.84F
GARRISON         N/A     82  67  60 SE13      29.80F
HETTINGER ARPT SUNNY     87  61  41 W7        29.88R
$$

NDZ004>008-012>016-024-026-027-054-212000-
NORTHEAST NORTH DAKOTA

CITY           SKY/WX    TMP DP  RH WIND       PRES   REMARKS
GRAND FORKS    CLOUDY    88  73  61 NW5       29.76F HX  95
GRND FRKS AFB  PTSUNNY   86  70  58 CALM      29.76F HX  90
DEVILS LAKE    LGT RAIN  79  69  71 NW9       29.83R
$$

NDZ022-023-025-028>030-036>039-047>053-212000-
SOUTHEAST NORTH DAKOTA

CITY           SKY/WX    TMP DP  RH WIND       PRES   REMARKS
FARGO          MOSUNNY   91  70  49 N6        29.76F HX  96
JAMESTOWN      SUNNY     91  64  40 S7        29.79F HX  92
$$





USA.gov is the U.S. government's official web portal to all federal, state and local government web resources and services.